Torna al catalogo

STARLINK-34333

AttivoComunicazioniVLEO
NORAD 64264·PAYLOAD·🇺🇸 United States

Lanciato Jun 4, 2025 da Vandenberg Space Force Base

Loading…

Prossimi Passaggi (prossime 24 ore)

TLE

AggiornatoSource: CelesTrak SupGP

Epoca: Sep 15, 2026, 03:25 UTC

1 64264C 25120J   26258.14284722  .00032970  00000+0  97411-3 0  2588
2 64264  53.1590 310.8659 0001206  93.8962 297.6309 15.34374021    12

Traccia STARLINK-34333 in tempo reale con AllMySat

Download on the App Store